User: anonymous   Login
Location: Unspecified
(0.0000°N, 0.0000°E)
Time: 01:42:22
(UTC+00:00)
Language:

HO-68 - Orbit

View from above orbital plane
View from above orbital plane
View from above satellite
View from above satellite

Ground track
Ground track

The orbit data is extracted from the following two-line orbital elements,

1 36122U 09072B   15153.11823819 -.00000060  00000-0 -43517-4 0  9992
2 36122 100.1939 198.4606 0007895 151.0140 209.1413 13.16327246262470
Epoch (UTC): 02 June 2015 02:50:15
Eccentricity: 0.0007895
inclination: 100.1939°
perigee height: 1193 km
apogee height: 1205 km
right ascension of ascending node: 198.4606°
argument of perigee: 151.0140°
revolutions per day: 13.16327246
mean anomaly at epoch: 209.1413°
orbit number at epoch: 26247

The dashed part of the orbit path shows where the satellite is in the earth's shadow,  

DLR